カタログに戻る

YUBELEINY 2

運用中アマチュア無線PO
NORAD 38735·PAYLOAD·🇷🇺 Russia

打ち上げ Jul 28, 2012 から Plesetsk Cosmodrome

Loading…

次のパス (今後24時間)

TLE

最新Source: Space-Track

元期: Sep 14, 2026, 13:31 UTC

1 38735U 12041C   26257.56328528  .00000021  00000-0  80971-4 0  9997
2 38735  82.4802  18.9406 0016937 230.4605 129.4978 12.42652110640943

AllMySatでYUBELEINY 2をリアルタイム追跡

Download on the App Store